COSMOS 249 DEB, 6764

Orbit data source: Space-Track

COSMOS 249 DEB, 6764 is space debris in LEO originally from a launch on Sun, 20 Oct 1968 UTC launched from the Tyuratam Missile And Space Complex (TTMTR). Debris objects in space refer to the collection of defunct objects orbiting the Earth. Examples of debris include non-operational satellites, rocket bodies, and fragments generated from explosions, collisions, or faulty payload assembly.

Loading next visibility...
Identifier
6764, 1968-091CK
Orbit
LEO
Country
Flag of CISCIS
Related business
Manufacturer
Unknown
Mission
Spacecraft
Bus & Motor
Unknown
Mass
Unknown
Launch date (UTC)
1968-10-20 (58 years ago)
Launch vehicle
Unknown
Launch site
Tyuratam Missile And Space Complex (TTMTR)
Object type
Payload
Rocket body
Debris
Shape & HBR
Unknown shape, 0.1 m
Radar Cross Section
Medium (>0.1 m² and <1 m²)

Expand to show TLE details & history
Last TLE update: 3 days ago

TLE from 3 days ago
0 COSMOS 249 DEB
1 06764U 68091CK  26233.12446315 -.00000692  00000-0 -17129-2 0  9990
2 06764  62.3413 275.1607 0766129   8.2164  20.7195 12.38194663733217
Epoch: 2026-08-21T02:59Z
TLE epoch observation values (Epoch: 2026-08-21T02:59:13.616Z)
Latitude
28.35397°
Longitude
-82.75978°
Altitude
957.389 km
Speed
7.633 km/s
True Right ascension
19h 26m 00s
True Declination
28° 12' 52"
Sunlit
Object was in full shadow at epoch
Visualization orbit readout
Latitude
Unknown
Longitude
Unknown
Altitude
Unknown
Speed
Unknown
Apparent Right ascension
Unknown
Apparent Declination
Unknown
Sunlit
N/A
Visualization observer readout
Local Sidereal Time
00:45:51
Azimuth
Unknown
Elevation
Unknown
Doppler factor
Unknown
Orbital elements
Apogee altitude
2,117.859 km
Perigee altitude
908.691 km
Semi-major axis
7,891.412 km
Eccentricity
0.07661
Inclination
62.3413°
RAAN
275.1607°
Arg. of periapsis
8.2164°
True anomaly
24.12772°
Mean anomaly
20.7195°
Eccentric anomaly
22.39165°
Mean motion
3.09607 °/min
Orbital period
116.28 mins
BSTAR
-0.0017129
Loading maneuver chart data...
Computing Atmospheric mass density...
Loading historical data...
Loading historical data...
Loading historical data...
Loading historical data...
Loading historical data...
Loading historical data...
Loading historical data...

Documentation

Showing up to 5 results
|